Flag for United Kingdom Weather past 2 weeks in Kingston upon Hull, England, United Kingdom

Now
68 °F

Scattered clouds.


Feels Like: 68 °F
Forecast: 52 / 66 °F
Wind: 15 mph from West

Location: Humberside

Current Time: Aug 30, 2014 at 4:10:02 PM

Latest Report: Aug 30, 2014 at 3:20 PM


Visibility: N/A

Pressure: 29.89 "Hg

Humidity: 56%

Dew point: 52 °F

Location of Kingston upon HullLocation

Historic Weather in Kingston upon Hull — Graph

°F

Kingston upon Hull temperature yesterday

Maximum temperature yesterday: 68 °F (at 1:50 PM)
Minimum temperature yesterday: 54 °F (at 12:20 AM)
Average temperature yesterday: 61 °F

Past Weeks' High & Low Weather Summary

 TemperatureHumidityPressure
High72 °F (Aug 28, 2:20 PM)100% (Aug 20, 6:20 AM)30.09 "Hg (Aug 20, 6:20 AM)
Low45 °F (Aug 20, 6:20 AM)43% (Aug 24, 4:50 PM)29.59 "Hg (Aug 17, 3:50 PM)
Average58 °F78%29.86 "Hg
* Reported Aug 15 3:20 PM — Aug 30 2:50 PM, Kingston upon Hull, Weather by CustomWeather, © 2014

Note: Actual official high and low records may vary slightly from our data, if they occured in-between our weather recording intervals... More about our weather records

Advertising

Kingston upon Hull weather history for previous 24 hours

 ConditionsComfort  
Time TempWeatherWind HumidityBarometerVisibility
2:50 PM
Aug 30
68 °FScattered clouds.16 mph60%29.89 "HgN/A
2:20 PM66 °FScattered clouds.14 mph64%29.89 "HgN/A
1:50 PM66 °FScattered clouds.17 mph64%29.89 "HgN/A
1:20 PM66 °FScattered clouds.15 mph68%29.89 "HgN/A
12:50 PM66 °FScattered clouds.14 mph64%29.89 "HgN/A
12:20 PM66 °FScattered clouds.13 mph68%29.89 "HgN/A
11:50 AM66 °FScattered clouds.15 mph68%29.89 "HgN/A
11:20 AM64 °FScattered clouds.20 mph73%29.86 "HgN/A
10:50 AM64 °FScattered clouds.18 mph73%29.86 "HgN/A
10:20 AM63 °FPartly sunny.21 mph77%29.86 "HgN/A
9:50 AM63 °FScattered clouds.17 mph77%29.86 "HgN/A
9:20 AM61 °FPassing clouds.15 mph83%29.83 "HgN/A
8:50 AM59 °FPassing clouds.15 mph88%29.83 "HgN/A
8:20 AM59 °FPassing clouds.15 mph88%29.83 "HgN/A
7:50 AM57 °FPassing clouds.14 mph94%29.83 "HgN/A
7:20 AM57 °FSunny.15 mph88%29.83 "Hg10 mi
6:50 AM57 °FPassing clouds.15 mph88%29.83 "HgN/A
6:20 AM57 °FPassing clouds.14 mph88%29.80 "HgN/A
5:50 AM57 °FPassing clouds.17 mph88%29.80 "HgN/A
5:20 AM57 °FPassing clouds.13 mph88%29.80 "HgN/A
4:50 AM57 °FCool.13 mph88%29.80 "HgN/A
4:20 AM59 °FPassing clouds.13 mph88%29.80 "HgN/A
3:50 AM59 °FPartly cloudy.13 mph88%29.80 "HgN/A
3:20 AM59 °FMostly cloudy.12 mph94%29.80 "HgN/A
2:50 AM59 °FPartly cloudy.12 mph88%29.80 "HgN/A
2:20 AM61 °FPassing clouds.14 mph83%29.77 "HgN/A
1:50 AM61 °FPartly cloudy.17 mph88%29.77 "HgN/A
1:20 AM61 °FLight rain. Overcast.16 mph94%29.77 "Hg4 mi
12:50 AM61 °FOvercast.12 mph94%29.77 "HgN/A
12:20 AM61 °FPartly cloudy.15 mph94%29.77 "HgN/A
11:50 PM
Aug 29
61 °FPartly cloudy.18 mph94%29.74 "HgN/A
11:20 PM61 °FLight rain. Partly cloudy.16 mph94%29.74 "Hg5 mi
10:50 PM61 °FPartly cloudy.15 mph94%29.77 "Hg4 mi
10:20 PM61 °FPartly cloudy.14 mph94%29.77 "HgN/A
8:20 PM63 °FSprinkles. Broken clouds.16 mph88%29.77 "Hg4 mi
7:50 PM63 °FBroken clouds.14 mph88%29.74 "Hg4 mi
6:50 PM63 °FSprinkles. Broken clouds.14 mph88%29.74 "Hg4 mi
6:20 PM64 °FBroken clouds.23 mph78%29.74 "HgN/A
5:50 PM66 °FSprinkles. Partly sunny.20 mph73%29.74 "HgN/A
5:20 PM66 °FSprinkles. Partly sunny.18 mph68%29.74 "HgN/A
4:50 PM66 °FPartly sunny.16 mph64%29.74 "HgN/A
4:20 PM66 °FDrizzle. Partly sunny.18 mph64%29.77 "HgN/A
Weather by CustomWeather, © 2014

See weather overviewHow to use our weather pages